Location: Newark
(45.8667°N, 9.7333°E)
Time: 09:20:00
(UTC+00:00)

AO-73 - Pass Details

Date: 24 February 2020
Orbit: 581 x 664 km, 97.6° (Epoch: 07 April)

Event Time Altitude Azimuth Distance (km) Brightness Sun altitude
Rises 17:48:40 0° 207° (SSW) 2,910 ? -9.3°
Reaches altitude 10° 17:51:29 10° 227° (SW) 2,024 ? -9.8°
Maximum altitude 17:54:28 18° 270° (W) 1,595 ? -10.3°
Drops below altitude 10° 17:57:31 10° 313° (NW) 2,066 ? -10.8°
Sets 18:00:26 0° 332° (NNW) 2,995 ? -11.3°
